Regional Weather Roundup
Issued by NWS

Home | Current Version | Previous Version | Text Only | Print | Product List | Glossary On
Versions: 1 2 3 4 5 6 7 8 9 10 11 12 13 14 15 16 17 18 19 20 21 22 23 24 25 26 27 28 29 30 31 32 33 34 35 36 37 38 39 40 41 42 43 44 45 46 47 48 49 50
386
ASUS43 KMPX 220301
RWRMN
WEATHER ROUNDUP FOR MINNESOTA
NATIONAL WEATHER SERVICE TWIN CITIES/CHANHASSEN MN
900 PM CST SAT JAN 21 2017


NOTE: "FAIR" INDICATES FEW OR NO CLOUDS BELOW 12,000 FEET WITH NO
SIGNIFICANT WEATHER AND/OR OBSTRUCTIONS TO VISIBILITY. N/A MEANS
CURRENT SKY AND/OR WEATHER CONDITIONS ARE NOT AVAILABLE.

MNZ060>063-068>070-220400-
   Twin Cities Metro

CITY           SKY/WX    TMP DP  RH WIND       PRES   REMARKS
TWIN CITIES    FOG       36  35  96 CALM      29.52R VSB 3/4
ST PAUL        FOG       35  35 100 CALM      29.53R VSB 1/4
CRYSTAL        FOG       36  34  92 CALM      29.51R VSB 1/4
LAKEVILLE      FOG       32  32 100 CALM      29.51R VSB 1/4
EDEN PRAIRIE   FOG       36  34  92 CALM      29.50R VSB 1/4
SOUTH ST PAUL  FOG       36  36  99 CALM      29.51R VSB 1/2
LAKE ELMO      FOG       34  34 100 CALM      29.52R VSB 1/4
$$
MNZ001>005-007-008-013>017-022>024-027-028-220400-
   Northwest Minnesota

CITY           SKY/WX    TMP DP  RH WIND       PRES   REMARKS
BEMIDJI        CLOUDY    33  33 100 CALM      29.53S FOG
HALLOCK        DRIZZLE   36  34  93 E6        29.55R
ROSEAU         FOG       34  30  86 CALM      29.56S VSB 1/2
WARROAD        CLOUDY    34  30  86 CALM      29.57R FOG
THIEF RVR FALL LGT RAIN  34  33  96 E6        29.56R WCI  29
CROOKSTON      MIX PCPN  36  34  93 E5        29.55S
FOSSTON        FOG       32  30  93 E3        29.54S VSB 1
DETROIT LAKES  FOG       36  34  93 CALM      29.53R VSB 3/4
MOORHEAD       CLOUDY    34  34 100 CALM      29.54R
PARK RAPIDS    FOG       35  33  92 CALM      29.51S VSB 1/2
MAHNOMEN       CLOUDY    34  33  96 E3        29.53R
$$
MNZ006-009>011-018-025>026-220400-
   North Central Minnesota

CITY           SKY/WX    TMP DP  RH WIND       PRES   REMARKS
BAUDETTE       CLOUDY    34  32  92 E3        29.56R
FLAG ISLAND    CLOUDY    36  34  93 CALM      29.57R
INTL FALLS     FOG       35  34  96 E5        29.55R VSB 1/2 WCI  31
WASKISH        CLOUDY    36  34  93 CALM      29.56R FOG
BIG FORK       FOG       36  34  93 CALM      29.54R VSB 1/4
LONGVILLE      FOG       34  34 100 CALM      29.52S VSB 1/2
GRAND RAPIDS   FOG       35  34  96 N3        29.54S VSB 1/4
CRANE LAKE     FOG       32  32 100 CALM      29.57S VSB 3/4
ORR            CLOUDY    34  32  93 CALM      29.52S FOG
COOK           CLOUDY    34  34 100 CALM      29.54S FOG
WALKER         FOG       33  33  99 CALM      29.52S VSB 1/4
$$
MNZ012-019>021-037-220400-
   Northeast Minnesota

CITY           SKY/WX    TMP DP  RH WIND       PRES   REMARKS
DULUTH         DRZL/FOG  35  35 100 NE3       29.51R VSB 1
ELY            LGT RAIN  34  34 100 NE3       29.53S
HIBBING        FOG       33  33 100 CALM      29.52S VSB 3/4
EVELETH        CLOUDY    35  34  98 CALM      29.53S FOG
DULUTH HARBOR  CLOUDY    34  34 100 NE9       29.54R FOG     WCI  26
TWO HARBORS    CLOUDY    37  34  87 NE7       29.51R HAZE
SILVER BAY     CLOUDY    36  36 100 NE6       29.51S FOG
GRAND MARAIS     N/A     37  34  89 NE6       29.54S
G MARAIS ARPRT CLOUDY    32  28  86 NE10      29.51S WCI  24
$$
MNZ029>031-032-039>041-046>048-054>057-064-220400-
   West Central Minnesota

CITY           SKY/WX    TMP DP  RH WIND       PRES   REMARKS
FERGUS FALLS   CLOUDY    34  34 100 CALM      29.56R
WHEATON        FOG       39  39 100 CALM      29.55R VSB 1/2
MORRIS         FOG       34  34 100 CALM      29.52R VSB 3/4
ALEXANDRIA     FOG       34  34 100 NE3       29.51R VSB 1/2
ELBOW LAKE     FOG       33  33 100 CALM      29.53R VSB 1
WADENA         FOG       34  34 100 N3        29.52R VSB<1/4
GLENWOOD       FOG       34  34 100 N3        29.51R VSB 1/4
APPLETON       FOG       34  34 100 CALM      29.52R VSB 1/2
BENSON           N/A     36  32  87 CALM      29.54R
ORTONVILLE     FOG       34  30  86 CALM      29.52R VSB 1/4
MADISON        FOG       36  36 100 CALM      29.52R VSB 1/2
WILLMAR        MIX PCPN  36  36 100 CALM      29.53R VSB 3/4
$$
MNZ033>034-036-042>043-049>051-058-059-220400-
   Central Minnesota

CITY           SKY/WX    TMP DP  RH WIND       PRES   REMARKS
ST CLOUD       FOG       34  34 100 N5        29.51R VSB 1/4 WCI  30
SAUK CENTRE    FOG       33  33 100 CALM      29.51R VSB 1/4
PAYNESVILLE    FOG       33  33 100 CALM      29.51R VSB 1/2
AITKIN         CLOUDY    37  34  87 CALM      29.50S
PINE RIVER     FOG       34  34 100 CALM      29.56R VSB 1/2
BRAINERD       FOG       34  34 100 NE5       29.51S VSB 1/4 WCI  30
STAPLES        FOG       34  34 100 CALM      29.52R VSB 1/2
LONG PRAIRIE   SNOW      32  32 100 CALM      29.51R VSB 1/4
LITTLE FALLS   FOG       34  32  93 CALM      29.52R VSB 1
LITCHFIELD     DRZL/FOG  36  36 100 CALM      29.52R VSB 1/2
BUFFALO        FOG       34  33  96 CALM      29.52R VSB 1/2
MAPLE LAKE     FOG       35  35 100 CALM      29.52R VSB 1/2
HUTCHINSON     SNOW      35  35 100 CALM      29.52R VSB 1/2
$$
MNZ037-044-045-052-053-220400-
   East Central Minnesota

CITY           SKY/WX    TMP DP  RH WIND       PRES   REMARKS
PRINCETON      FOG       36  36 100 CALM      29.51R VSB 1/2
MORA           CLOUDY    34  32  93 CALM      29.52S
CAMBRIDGE      FOG       37  36  93 CALM      29.49R VSB 1/4
RUSH CITY      FOG       34  34 100 CALM      29.51R VSB 3/4
MOOSE LAKE     FOG       34  32  93 NE5       29.50S VSB 3/4 WCI  30
HINCKLEY       CLOUDY    34  34 100 N5        29.51R WCI  30
CLOQUET        FOG       34  34 100 N3        29.51S VSB 3/4
MCGREGOR       CLOUDY    34  34 100 CALM      29.52R
$$
MNZ071>073-080-081-089-090-097-098-220400-
   Southwest Minnesota

CITY           SKY/WX    TMP DP  RH WIND       PRES   REMARKS
MONTEVIDEO     FOG       34  34 100 CALM      29.54R VSB 1/4
GRANITE FALLS  FOG       34  34 100 CALM      29.53R VSB 1/4
CANBY          CLOUDY    34  34 100 CALM      29.53R
MARSHALL       CLOUDY    34  33  96 W9        29.52R FOG     WCI  27
REDWOOD FALLS  FOG       35  33  92 N5        29.50R VSB 1/4 WCI  31
OLIVIA         FOG       34  34 100 CALM      29.52R VSB 1/2
PIPESTONE      CLOUDY    32  30  93 NW8       29.50R WCI  25
WINDOM         CLOUDY    34  34 100 W7        29.51R FOG     WCI  28
WORTHINGTON    CLOUDY    31  30  96 W10       29.52R WCI  22
JACKSON        CLOUDY    32  32 100 W8        29.52R WCI  25
TRACY          CLOUDY    35  34  98 NW7       29.51R WCI  29
SLAYTON        CLOUDY    31  31 100 NW10      29.50R FOG     WCI  23
$$
MNZ065>067-074>077-082>085-091>093-220400-
   South Central Minnesota

CITY           SKY/WX    TMP DP  RH WIND       PRES   REMARKS
MANKATO        FOG       35  34  96 CALM      29.51R VSB 1/2
NEW ULM        FOG       36  36 100 CALM      29.50S VSB 1/4
ST JAMES       CLOUDY    34  34 100 SW8       29.52R FOG     WCI  27
FAIRMONT       CLOUDY    33  32  96 W8        29.52R FOG     WCI  26
GLENCOE        FOG       35  35 100 CALM      29.51R VSB 1/2
OWATONNA       FOG       36  34  93 S3        29.51R VSB 1
WASECA         FOG       34  34 100 S7        29.52R VSB 1/4 WCI  28
ALBERT LEA     CLOUDY    36  36 100 W6        29.51R FOG
$$
MNZ078>079-086>088-094>096-220400-
   Southeast Minnesota

CITY           SKY/WX    TMP DP  RH WIND       PRES   REMARKS
ROCHESTER      FOG       34  34 100 SW9       29.50S VSB 1/2 WCI  27
RED WING       FOG       36  34  93 CALM      29.51S VSB 1/2
STANTON        FOG       35  33  95 CALM      29.50S VSB 1/2
DODGE CENTER   FOG       34  34 100 CALM      29.50R VSB 3/4
WINONA         CLOUDY    36  36 100 CALM      29.52S FOG
AUSTIN         CLOUDY    36  36 100 W8        29.51R FOG
PRESTON        FOG       35  34  97 SW5       29.51R VSB 1   WCI  31
$$
ABBREVIATIONS USED IN REMARKS
   TC - TEMPERATURES IN CELSIUS
  WCI - WIND CHILL INDEX
   HX - HEAT INDEX
  VSB - VISIBILITY
$$




USA.gov is the U.S. government's official web portal to all federal, state and local government web resources and services.